Time,TemperatureF,DewpointF,PressureIn,WindDirection,WindDirectionDegrees,WindSpeedMPH,WindSpeedGustMPH,Humidity,HourlyPrecipIn,Conditions,Clouds,dailyrainin,SoftwareType,DateUTC
2013-03-29 00:02:00,51.0,41.0,-100.00,ESE,120,4.0,5.0,68,-99.99,,,-99.99,,2013-03-29 07:02:00,
2013-03-29 00:12:00,52.0,41.0,-100.00,ESE,104,4.0,5.0,67,-99.99,,,-99.99,,2013-03-29 07:12:00,
2013-03-29 00:22:00,53.0,43.0,-100.00,East,87,3.0,5.0,68,-99.99,,,-99.99,,2013-03-29 07:22:00,
2013-03-29 00:32:00,51.0,41.0,-100.00,East,82,5.0,6.0,68,-99.99,,,-99.99,,2013-03-29 07:32:00,
2013-03-29 00:42:00,50.0,41.0,-100.00,ESE,120,4.0,6.0,70,-99.99,,,-99.99,,2013-03-29 07:42:00,
2013-03-29 00:52:00,49.0,40.0,-100.00,ESE,118,5.0,5.0,72,-99.99,,,-99.99,,2013-03-29 07:52:00,
2013-03-29 01:01:00,48.0,40.0,-100.00,ESE,114,5.0,6.0,73,-99.99,,,-99.99,,2013-03-29 08:01:00,
2013-03-29 01:12:00,48.0,40.0,-100.00,SE,131,5.0,6.0,73,-99.99,,,-99.99,,2013-03-29 08:12:00,
2013-03-29 01:22:00,46.0,38.0,-100.00,SE,143,6.0,7.0,74,-99.99,,,-99.99,,2013-03-29 08:22:00,
2013-03-29 01:32:00,46.0,38.0,-100.00,SE,143,6.0,7.0,74,-99.99,,,-99.99,,2013-03-29 08:32:00,
2013-03-29 01:42:00,49.0,41.0,-100.00,ESE,105,6.0,7.0,73,-99.99,,,-99.99,,2013-03-29 08:42:00,
2013-03-29 01:52:00,49.0,39.0,-100.00,SE,130,5.0,7.0,69,-99.99,,,-99.99,,2013-03-29 08:52:00,
2013-03-29 02:02:00,47.0,38.0,-100.00,SE,141,7.0,9.0,70,-99.99,,,-99.99,,2013-03-29 09:02:00,
2013-03-29 02:12:00,48.0,38.0,-100.00,SE,132,6.0,7.0,69,-99.99,,,-99.99,,2013-03-29 09:12:00,
2013-03-29 02:22:00,49.0,39.0,-100.00,SE,132,6.0,8.0,67,-99.99,,,-99.99,,2013-03-29 09:22:00,
2013-03-29 02:32:00,49.0,38.0,-100.00,SE,128,6.0,8.0,65,-99.99,,,-99.99,,2013-03-29 09:32:00,
2013-03-29 02:42:00,50.0,38.0,-100.00,SE,127,6.0,7.0,62,-99.99,,,-99.99,,2013-03-29 09:42:00,
2013-03-29 02:52:00,50.0,37.0,-100.00,SE,124,5.0,7.0,61,-99.99,,,-99.99,,2013-03-29 09:52:00,
2013-03-29 03:02:00,50.0,37.0,-100.00,ESE,121,5.0,8.0,60,-99.99,,,-99.99,,2013-03-29 10:02:00,
2013-03-29 03:12:00,52.0,37.0,-100.00,ESE,113,5.0,6.0,57,-99.99,,,-99.99,,2013-03-29 10:12:00,
2013-03-29 03:22:00,52.0,37.0,-100.00,East,98,5.0,6.0,56,-99.99,,,-99.99,,2013-03-29 10:22:00,
2013-03-29 03:33:00,51.0,36.0,-100.00,East,101,5.0,6.0,56,-99.99,,,-99.99,,2013-03-29 10:33:00,
2013-03-29 03:42:00,51.0,37.0,-100.00,ESE,108,5.0,6.0,58,-99.99,,,-99.99,,2013-03-29 10:42:00,
2013-03-29 03:52:00,50.0,36.0,-100.00,ESE,116,5.0,6.0,59,-99.99,,,-99.99,,2013-03-29 10:52:00,
2013-03-29 04:02:00,48.0,36.0,-100.00,ESE,119,5.0,7.0,62,-99.99,,,-99.99,,2013-03-29 11:02:00,
2013-03-29 04:12:00,47.0,35.0,-100.00,SE,133,6.0,7.0,64,-99.99,,,-99.99,,2013-03-29 11:12:00,
2013-03-29 04:23:00,47.0,35.0,-100.00,ESE,122,6.0,8.0,63,-99.99,,,-99.99,,2013-03-29 11:23:00,
2013-03-29 04:32:00,48.0,36.0,-100.00,SE,127,6.0,7.0,62,-99.99,,,-99.99,,2013-03-29 11:32:00,
2013-03-29 04:42:00,47.0,35.0,-100.00,SE,132,6.0,7.0,63,-99.99,,,-99.99,,2013-03-29 11:42:00,
2013-03-29 04:52:00,48.0,36.0,-100.00,ESE,116,6.0,7.0,62,-99.99,,,-99.99,,2013-03-29 11:52:00,
2013-03-29 05:02:00,48.0,35.0,-100.00,SE,124,6.0,7.0,60,-99.99,,,-99.99,,2013-03-29 12:02:00,
2013-03-29 05:12:00,49.0,35.0,-100.00,ESE,118,5.0,7.0,58,-99.99,,,-99.99,,2013-03-29 12:12:00,
2013-03-29 05:22:00,48.0,34.0,-100.00,SE,127,6.0,8.0,59,-99.99,,,-99.99,,2013-03-29 12:22:00,
2013-03-29 05:32:00,47.0,34.0,-100.00,SE,129,6.0,7.0,60,-99.99,,,-99.99,,2013-03-29 12:32:00,
2013-03-29 05:42:00,47.0,34.0,-100.00,SE,129,6.0,8.0,60,-99.99,,,-99.99,,2013-03-29 12:42:00,
2013-03-29 05:51:00,47.0,34.0,-100.00,ESE,122,6.0,8.0,61,-99.99,,,-99.99,,2013-03-29 12:51:00,
2013-03-29 06:02:00,47.0,34.0,-100.00,SE,127,6.0,8.0,61,-99.99,,,-99.99,,2013-03-29 13:02:00,
2013-03-29 06:12:00,47.0,34.0,-100.00,SE,128,6.0,8.0,60,-99.99,,,-99.99,,2013-03-29 13:12:00,
2013-03-29 06:22:00,46.0,34.0,-100.00,SE,127,7.0,8.0,62,-99.99,,,-99.99,,2013-03-29 13:22:00,
2013-03-29 06:32:00,46.0,34.0,-100.00,SE,132,7.0,10.0,62,-99.99,,,-99.99,,2013-03-29 13:32:00,
2013-03-29 06:42:00,46.0,34.0,-100.00,SE,137,7.0,9.0,62,-99.99,,,-99.99,,2013-03-29 13:42:00,
2013-03-29 06:52:00,45.0,33.0,-100.00,SE,136,9.0,11.0,63,-99.99,,,-99.99,,2013-03-29 13:52:00,
2013-03-29 07:02:00,46.0,33.0,-100.00,SE,136,8.0,10.0,61,-99.99,,,-99.99,,2013-03-29 14:02:00,
2013-03-29 07:12:00,47.0,34.0,-100.00,ESE,123,7.0,9.0,60,-99.99,,,-99.99,,2013-03-29 14:12:00,
2013-03-29 07:22:00,47.0,34.0,-100.00,SE,135,7.0,9.0,60,-99.99,,,-99.99,,2013-03-29 14:22:00,
2013-03-29 07:30:00,48.0,33.0,-100.00,SE,127,7.0,9.0,56,-99.99,,,-99.99,,2013-03-29 14:30:00,
2013-03-29 07:32:00,48.0,33.0,-100.00,ESE,120,7.0,10.0,56,-99.99,,,-99.99,,2013-03-29 14:32:00,
2013-03-29 07:42:00,48.0,34.0,-100.00,SE,133,7.0,9.0,58,-99.99,,,-99.99,,2013-03-29 14:42:00,
2013-03-29 07:52:00,48.0,34.0,-100.00,SE,130,6.0,7.0,58,-99.99,,,-99.99,,2013-03-29 14:52:00,
2013-03-29 08:02:00,48.0,33.0,-100.00,SE,127,7.0,9.0,56,-99.99,,,-99.99,,2013-03-29 15:02:00,
2013-03-29 08:12:00,48.0,33.0,-100.00,SE,127,7.0,9.0,56,-99.99,,,-99.99,,2013-03-29 15:12:00,
2013-03-29 08:22:00,48.0,33.0,-100.00,SE,127,7.0,9.0,56,-99.99,,,-99.99,,2013-03-29 15:22:00,
2013-03-29 09:12:00,58.0,37.0,-100.00,ESE,109,4.0,6.0,46,-99.99,,,-99.99,,2013-03-29 16:12:00,
2013-03-29 09:23:00,63.0,37.0,-100.00,ESE,113,1.0,3.0,38,-99.99,,,-99.99,,2013-03-29 16:23:00,
2013-03-29 09:32:00,64.0,37.0,-100.00,North,350,1.0,3.0,36,-99.99,,,-99.99,,2013-03-29 16:32:00,
2013-03-29 09:42:00,65.0,37.0,-100.00,NNW,338,1.0,2.0,36,-99.99,,,-99.99,,2013-03-29 16:42:00,
2013-03-29 09:52:00,66.0,38.0,-100.00,ENE,77,1.0,3.0,35,-99.99,,,-99.99,,2013-03-29 16:52:00,
2013-03-29 10:02:00,67.0,37.0,-100.00,NNE,22,1.0,3.0,33,-99.99,,,-99.99,,2013-03-29 17:02:00,
2013-03-29 10:12:00,68.0,36.0,-100.00,SSE,160,1.0,5.0,31,-99.99,,,-99.99,,2013-03-29 17:12:00,
2013-03-29 10:22:00,69.0,35.0,-100.00,SSE,168,3.0,6.0,29,-99.99,,,-99.99,,2013-03-29 17:22:00,
2013-03-29 10:32:00,69.0,34.0,-100.00,South,187,3.0,7.0,27,-99.99,,,-99.99,,2013-03-29 17:32:00,
2013-03-29 10:42:00,69.0,35.0,-100.00,South,190,4.0,8.0,29,-99.99,,,-99.99,,2013-03-29 17:42:00,
2013-03-29 10:52:00,69.0,35.0,-100.00,South,190,4.0,8.0,29,-99.99,,,-99.99,,2013-03-29 17:52:00,
2013-03-29 11:02:00,67.0,40.0,-100.00,WNW,284,8.0,12.0,37,-99.99,,,-99.99,,2013-03-29 18:02:00,
2013-03-29 11:12:00,67.0,40.0,-100.00,WNW,282,8.0,13.0,37,-99.99,,,-99.99,,2013-03-29 18:12:00,
2013-03-29 11:22:00,67.0,40.0,-100.00,WNW,289,10.0,13.0,37,-99.99,,,-99.99,,2013-03-29 18:22:00,
2013-03-29 11:32:00,67.0,40.0,-100.00,WNW,295,8.0,11.0,37,-99.99,,,-99.99,,2013-03-29 18:32:00,
2013-03-29 11:42:00,68.0,41.0,-100.00,WNW,291,8.0,12.0,38,-99.99,,,-99.99,,2013-03-29 18:42:00,
2013-03-29 11:52:00,68.0,41.0,-100.00,WNW,285,8.0,12.0,38,-99.99,,,-99.99,,2013-03-29 18:52:00,
2013-03-29 12:02:00,68.0,41.0,-100.00,West,274,8.0,12.0,38,-99.99,,,-99.99,,2013-03-29 19:02:00,
2013-03-29 12:12:00,68.0,42.0,-100.00,WNW,284,10.0,13.0,39,-99.99,,,-99.99,,2013-03-29 19:12:00,
2013-03-29 12:22:00,67.0,42.0,-100.00,West,279,9.0,14.0,40,-99.99,,,-99.99,,2013-03-29 19:22:00,
2013-03-29 12:32:00,67.0,43.0,-100.00,West,280,10.0,14.0,42,-99.99,,,-99.99,,2013-03-29 19:32:00,
2013-03-29 12:42:00,67.0,43.0,-100.00,West,279,9.0,12.0,42,-99.99,,,-99.99,,2013-03-29 19:42:00,
2013-03-29 12:52:00,68.0,43.0,-100.00,WNW,282,8.0,12.0,41,-99.99,,,-99.99,,2013-03-29 19:52:00,
2013-03-29 13:02:00,68.0,45.0,-100.00,WNW,285,10.0,13.0,43,-99.99,,,-99.99,,2013-03-29 20:02:00,
2013-03-29 13:12:00,66.0,46.0,-100.00,West,274,10.0,13.0,49,-99.99,,,-99.99,,2013-03-29 20:12:00,
2013-03-29 13:22:00,65.0,46.0,-100.00,West,279,8.0,10.0,51,-99.99,,,-99.99,,2013-03-29 20:22:00,
2013-03-29 13:32:00,67.0,46.0,-100.00,WNW,301,6.0,9.0,47,-99.99,,,-99.99,,2013-03-29 20:32:00,
2013-03-29 13:42:00,67.0,45.0,-100.00,WNW,299,5.0,9.0,45,-99.99,,,-99.99,,2013-03-29 20:42:00,
2013-03-29 13:52:00,67.0,46.0,-100.00,WNW,283,7.0,10.0,47,-99.99,,,-99.99,,2013-03-29 20:52:00,
2013-03-29 14:02:00,67.0,46.0,-100.00,WNW,283,7.0,10.0,47,-99.99,,,-99.99,,2013-03-29 21:02:00,
2013-03-29 14:12:00,67.0,47.0,-100.00,West,273,6.0,9.0,49,-99.99,,,-99.99,,2013-03-29 21:12:00,
2013-03-29 14:22:00,67.0,47.0,-100.00,WSW,255,5.0,8.0,48,-99.99,,,-99.99,,2013-03-29 21:22:00,
2013-03-29 14:32:00,68.0,48.0,-100.00,West,259,5.0,9.0,48,-99.99,,,-99.99,,2013-03-29 21:32:00,
2013-03-29 14:42:00,67.0,47.0,-100.00,West,262,5.0,9.0,49,-99.99,,,-99.99,,2013-03-29 21:42:00,
2013-03-29 14:52:00,67.0,48.0,-100.00,West,267,6.0,10.0,50,-99.99,,,-99.99,,2013-03-29 21:52:00,
2013-03-29 15:02:00,66.0,48.0,-100.00,West,279,7.0,10.0,52,-99.99,,,-99.99,,2013-03-29 22:02:00,
2013-03-29 15:12:00,67.0,49.0,-100.00,West,277,8.0,12.0,52,-99.99,,,-99.99,,2013-03-29 22:12:00,
2013-03-29 15:22:00,67.0,48.0,-100.00,WNW,292,8.0,11.0,51,-99.99,,,-99.99,,2013-03-29 22:22:00,
2013-03-29 15:33:00,67.0,48.0,-100.00,WNW,292,8.0,11.0,51,-99.99,,,-99.99,,2013-03-29 22:33:00,
2013-03-29 15:42:00,68.0,48.0,-100.00,WNW,292,7.0,10.0,49,-99.99,,,-99.99,,2013-03-29 22:42:00,
2013-03-29 15:52:00,67.0,48.0,-100.00,West,281,9.0,12.0,51,-99.99,,,-99.99,,2013-03-29 22:52:00,
2013-03-29 16:02:00,67.0,49.0,-100.00,WNW,287,9.0,12.0,53,-99.99,,,-99.99,,2013-03-29 23:02:00,
2013-03-29 16:12:00,67.0,49.0,-100.00,WNW,289,7.0,12.0,52,-99.99,,,-99.99,,2013-03-29 23:12:00,
2013-03-29 16:22:00,67.0,48.0,-100.00,NW,308,8.0,11.0,50,-99.99,,,-99.99,,2013-03-29 23:22:00,
2013-03-29 16:32:00,67.0,48.0,-100.00,NW,306,7.0,11.0,51,-99.99,,,-99.99,,2013-03-29 23:32:00,
2013-03-29 16:42:00,67.0,48.0,-100.00,West,280,6.0,10.0,50,-99.99,,,-99.99,,2013-03-29 23:42:00,
2013-03-29 16:52:00,67.0,48.0,-100.00,WNW,295,7.0,11.0,51,-99.99,,,-99.99,,2013-03-29 23:52:00,
2013-03-29 17:02:00,67.0,48.0,-100.00,WNW,295,7.0,11.0,51,-99.99,,,-99.99,,2013-03-30 00:02:00,
2013-03-29 17:11:00,65.0,49.0,-100.00,WNW,294,8.0,11.0,57,-99.99,,,-99.99,,2013-03-30 00:11:00,
2013-03-29 17:22:00,64.0,49.0,-100.00,WNW,284,8.0,11.0,59,-99.99,,,-99.99,,2013-03-30 00:22:00,
2013-03-29 17:32:00,64.0,50.0,-100.00,West,280,7.0,10.0,61,-99.99,,,-99.99,,2013-03-30 00:32:00,
2013-03-29 17:42:00,63.0,50.0,-100.00,WNW,286,7.0,10.0,62,-99.99,,,-99.99,,2013-03-30 00:42:00,
2013-03-29 17:52:00,63.0,50.0,-100.00,NW,310,7.0,9.0,63,-99.99,,,-99.99,,2013-03-30 00:52:00,
2013-03-29 18:02:00,62.0,49.0,-100.00,WNW,303,6.0,9.0,63,-99.99,,,-99.99,,2013-03-30 01:02:00,
2013-03-29 18:12:00,63.0,49.0,-100.00,NW,306,2.0,5.0,61,-99.99,,,-99.99,,2013-03-30 01:12:00,
2013-03-29 18:22:00,64.0,49.0,-100.00,WNW,298,2.0,5.0,59,-99.99,,,-99.99,,2013-03-30 01:22:00,
2013-03-29 18:32:00,65.0,50.0,-100.00,NNW,330,2.0,5.0,58,-99.99,,,-99.99,,2013-03-30 01:32:00,
2013-03-29 18:42:00,64.0,50.0,-100.00,NW,321,6.0,7.0,60,-99.99,,,-99.99,,2013-03-30 01:42:00,
2013-03-29 18:52:00,63.0,50.0,-100.00,NW,313,6.0,8.0,63,-99.99,,,-99.99,,2013-03-30 01:52:00,
2013-03-29 19:02:00,63.0,50.0,-100.00,NW,313,6.0,8.0,63,-99.99,,,-99.99,,2013-03-30 02:02:00,
2013-03-29 19:12:00,61.0,50.0,-100.00,WNW,300,2.0,3.0,68,-99.99,,,-99.99,,2013-03-30 02:12:00,
2013-03-29 19:22:00,61.0,51.0,-100.00,West,274,4.0,6.0,69,-99.99,,,-99.99,,2013-03-30 02:22:00,
2013-03-29 19:32:00,60.0,51.0,-100.00,West,261,5.0,8.0,72,-99.99,,,-99.99,,2013-03-30 02:32:00,
2013-03-29 19:42:00,58.0,50.0,-100.00,WNW,290,5.0,7.0,76,-99.99,,,-99.99,,2013-03-30 02:42:00,
2013-03-29 19:52:00,57.0,50.0,-100.00,WNW,303,4.0,7.0,78,-99.99,,,-99.99,,2013-03-30 02:52:00,
2013-03-29 20:02:00,56.0,50.0,-100.00,NNW,339,3.0,4.0,81,-99.99,,,-99.99,,2013-03-30 03:02:00,
2013-03-29 20:12:00,56.0,51.0,-100.00,North,11,2.0,4.0,83,-99.99,,,-99.99,,2013-03-30 03:12:00,
2013-03-29 20:21:00,56.0,51.0,-100.00,NE,49,1.0,3.0,82,-99.99,,,-99.99,,2013-03-30 03:21:00,
2013-03-29 20:30:00,54.0,50.0,-100.00,North,354,2.0,3.0,86,-99.99,,,-99.99,,2013-03-30 03:30:00,
2013-03-29 20:32:00,56.0,51.0,-100.00,West,260,3.0,5.0,83,-99.99,,,-99.99,,2013-03-30 03:32:00,
2013-03-29 20:43:00,55.0,51.0,-100.00,West,281,3.0,4.0,85,-99.99,,,-99.99,,2013-03-30 03:43:00,
2013-03-29 20:52:00,55.0,51.0,-100.00,North,7,2.0,2.0,85,-99.99,,,-99.99,,2013-03-30 03:52:00,
2013-03-29 21:02:00,54.0,50.0,-100.00,North,354,2.0,3.0,86,-99.99,,,-99.99,,2013-03-30 04:02:00,
2013-03-29 21:12:00,54.0,50.0,-100.00,North,354,2.0,3.0,86,-99.99,,,-99.99,,2013-03-30 04:12:00,
2013-03-29 21:22:00,54.0,50.0,-100.00,North,354,2.0,3.0,86,-99.99,,,-99.99,,2013-03-30 04:22:00,
2013-03-29 23:22:00,56.0,48.0,-100.00,SSE,149,5.0,9.0,75,-99.99,,,-99.99,,2013-03-30 06:22:00,
2013-03-29 23:32:00,55.0,46.0,-100.00,SSE,154,4.0,8.0,72,-99.99,,,-99.99,,2013-03-30 06:32:00,
2013-03-29 23:42:00,56.0,46.0,-100.00,SE,145,6.0,8.0,70,-99.99,,,-99.99,,2013-03-30 06:42:00,
2013-03-29 23:52:00,55.0,45.0,-100.00,SSE,151,5.0,8.0,70,-99.99,,,-99.99,,2013-03-30 06:52:00,